Theta_e
289 289 289 289 289 289 289 288 288 288 288 288 287 287 287 287 287 287 287 287 287 287 286 286 285 285 284 283 283 283 283 282 282 282 282 281 281 280 279 279 279 279 278 278 278 278 278 278 278 279 278 277 277 276 275 275 274 274 274 274 274 274 273 273 274 273 273 273 274
288 288 289 289 288 289 288 288 288 288 288 288 288 287 287 287 287 287 287 286 287 287 287 286 285 284 284 283 283 283 283 282 282 282 282 281 280 280 279 279 279 279 279 278 278 278 279 278 279 279 278 277 277 276 275 274 274 274 274 274 274 274 274 274 274 273 273 273 273
288 288 288 288 288 288 288 288 288 288 288 288 288 287 287 287 287 287 287 287 287 286 286 286 285 284 283 283 283 283 283 283 282 282 282 281 281 280 280 280 279 279 279 279 278 279 279 278 279 280 279 278 277 276 275 273 274 274 274 273 274 274 274 275 273 273 273 274 273
288 288 288 288 288 288 288 289 288 288 287 288 287 287 287 287 287 287 287 286 286 286 286 286 285 284 284 283 283 283 283 283 282 282 282 281 281 280 280 280 279 279 279 279 278 278 278 278 280 280 279 278 277 277 276 275 274 274 274 274 274 274 274 275 274 274 274 274 273
288 288 288 289 288 288 288 289 288 288 287 287 287 287 287 287 287 286 286 286 286 286 286 285 285 284 284 284 283 283 283 283 283 282 282 281 281 280 280 279 279 279 279 278 278 278 278 278 279 279 279 277 277 277 276 274 274 274 274 274 274 274 274 274 274 274 274 274 272
288 288 289 289 288 288 289 289 288 288 287 287 287 287 287 287 287 286 286 286 286 286 285 285 285 284 284 283 283 283 283 283 283 282 282 281 281 280 279 279 279 279 279 278 278 278 278 278 279 279 277 277 276 275 274 274 274 274 274 274 273 274 274 274 274 274 273 273 272
288 288 288 288 288 288 288 288 288 287 287 287 286 286 286 287 286 286 286 286 286 285 285 285 284 284 283 283 283 283 283 283 282 282 282 281 280 280 279 279 279 278 278 278 278 278 278 278 279 279 278 277 276 274 273 274 275 275 274 274 273 273 273 272 273 273 273 272 271
288 288 288 288 288 288 288 288 287 287 287 287 286 286 286 286 286 285 285 285 285 285 284 285 284 283 283 283 283 283 283 282 282 282 282 281 280 280 279 279 278 278 278 278 278 278 278 279 279 278 277 277 277 275 273 273 274 275 274 274 273 272 272 271 272 272 272 271 271
288 288 288 288 288 288 287 287 287 287 287 287 286 286 286 286 285 285 285 285 285 284 284 284 284 283 283 283 283 283 283 282 282 282 282 281 280 279 279 279 278 278 278 278 278 278 278 279 279 278 277 277 277 275 274 273 274 274 274 273 272 271 271 271 271 271 271 271 271
288 288 287 287 287 287 287 287 286 286 286 286 286 286 286 286 285 285 285 285 285 284 284 284 283 283 283 282 282 283 283 283 282 282 281 281 280 279 279 279 278 278 278 278 278 277 278 278 278 277 277 277 276 274 273 273 274 274 273 274 272 271 270 270 270 270 271 271 271
288 287 287 287 287 287 287 286 286 286 286 286 286 286 286 286 285 285 285 285 284 284 283 284 283 283 282 282 282 283 283 283 282 282 281 281 280 279 279 279 278 278 278 278 278 278 278 278 277 276 275 276 275 274 273 273 274 273 273 273 271 271 270 269 270 270 271 270 270
287 287 287 287 286 286 286 286 286 286 286 286 286 285 285 285 285 285 285 284 284 283 283 283 283 282 282 282 282 283 283 282 282 282 281 280 280 279 279 279 278 278 278 278 278 278 278 278 277 276 275 274 275 274 273 273 273 273 272 271 271 271 270 270 269 270 270 270 270
287 287 286 286 286 285 286 286 286 286 286 285 285 285 285 285 285 285 284 284 283 283 283 283 282 282 282 282 282 282 282 282 282 281 281 280 280 279 279 279 278 278 278 278 278 278 278 278 277 276 275 274 275 274 274 273 274 273 273 271 271 271 271 270 269 269 270 269 269
287 286 286 286 285 285 285 285 286 286 286 285 285 285 285 285 284 284 284 284 283 283 283 282 282 282 282 282 282 282 282 282 281 281 280 280 279 279 278 278 278 278 278 278 278 278 278 278 277 276 275 274 274 274 274 274 274 274 273 272 272 271 271 270 269 269 269 269 269
286 286 285 285 285 285 285 285 286 286 286 285 285 285 285 285 284 284 284 284 283 283 282 282 282 282 282 282 282 282 281 281 281 280 280 279 279 278 278 278 278 278 278 278 277 277 277 277 277 276 275 275 274 274 274 274 274 274 274 273 272 272 271 270 269 270 270 269 269
285 285 285 285 284 285 285 285 286 286 286 286 286 285 285 285 284 284 284 283 283 283 282 282 282 281 281 281 281 281 281 281 280 280 279 279 279 278 278 278 278 277 277 277 277 277 277 277 276 276 275 275 274 274 273 274 274 274 273 273 272 272 271 270 270 270 270 269 269
285 285 285 284 284 284 285 285 286 286 286 286 286 285 285 285 284 284 283 283 283 283 282 281 281 281 281 281 281 281 281 280 280 280 279 279 278 278 278 278 277 277 277 277 277 276 276 276 276 275 275 275 274 274 273 273 273 273 272 272 272 271 271 270 270 270 269 269 269
285 285 285 285 284 284 285 285 285 286 286 285 285 285 285 284 284 283 283 283 283 282 282 281 281 281 281 280 280 280 281 280 280 279 279 279 278 278 278 277 277 277 277 277 277 276 276 275 275 275 275 274 274 274 273 273 273 272 272 271 271 270 270 270 269 269 269 269 268
284 284 284 285 284 284 284 285 285 285 285 285 285 285 285 284 284 283 283 283 283 282 281 281 281 280 280 280 280 280 280 280 280 279 279 279 278 278 278 277 277 277 277 277 277 276 276 275 275 274 274 274 273 273 273 272 272 271 271 270 270 269 269 269 268 268 268 268 267
285 285 285 285 285 285 285 285 285 285 285 285 284 284 284 284 283 283 282 282 282 282 281 281 280 280 280 279 279 280 280 280 280 279 279 279 278 278 278 277 277 277 276 276 276 276 276 275 274 274 274 273 273 272 272 271 271 270 269 269 269 268 268 268 267 267 267 267 267
285 285 285 285 285 285 285 285 285 285 284 284 284 284 283 283 283 282 282 282 282 281 281 280 280 280 279 279 279 279 280 280 280 279 279 279 278 278 278 277 277 276 276 276 276 276 275 275 274 273 273 273 273 272 271 271 270 269 269 269 268 267 267 267 267 266 266 266 266
285 285 286 286 286 285 285 285 285 284 284 283 284 283 283 283 282 282 282 282 281 281 280 280 280 280 279 279 279 279 279 280 279 279 279 278 278 278 278 277 276 276 275 275 275 275 274 274 273 273 273 273 272 272 271 271 270 269 268 268 267 267 266 266 266 266 266 266 266
286 286 286 286 285 285 285 284 284 284 283 283 283 283 283 282 282 282 281 281 281 281 280 280 280 280 279 279 279 279 279 279 279 278 278 278 278 277 277 277 276 275 275 275 275 274 274 273 273 273 273 272 272 271 271 271 270 269 268 267 267 266 266 266 266 266 266 267 266
286 286 286 285 285 284 284 284 283 283 283 282 282 282 282 282 281 281 281 281 281 280 280 280 280 280 279 279 279 279 278 278 278 277 277 277 277 276 276 276 275 275 275 275 275 275 274 273 273 272 272 272 271 271 271 270 270 269 268 267 267 266 266 266 266 266 266 267 267
286 285 284 284 284 283 283 283 283 283 282 282 282 282 282 282 281 281 281 280 280 280 280 280 280 280 279 279 279 278 278 278 277 277 276 276 276 275 275 275 275 275 275 275 277 278 277 276 274 273 273 272 271 271 270 270 269 269 268 268 267 267 266 266 266 266 267 267 267
284 284 284 283 283 282 282 282 282 282 282 281 281 281 281 281 281 280 280 280 280 280 280 280 279 279 279 278 278 278 278 277 277 276 276 275 275 274 274 275 275 275 275 276 278 280 280 279 278 275 273 272 271 270 270 270 269 268 268 268 268 267 267 266 266 267 267 267 267
283 283 283 282 282 282 282 282 282 282 281 281 281 281 281 280 280 280 280 279 279 279 279 279 279 278 278 278 277 277 277 277 276 276 276 275 274 274 274 274 274 275 275 277 279 281 281 280 280 277 275 272 271 271 270 269 269 268 268 268 268 268 267 267 267 267 267 267 267
283 283 282 282 281 281 282 281 281 281 281 280 280 280 280 280 279 279 279 279 278 278 278 278 278 278 278 277 276 276 276 276 276 275 275 275 274 274 274 274 274 275 276 278 281 282 282 281 281 279 276 273 271 270 270 269 268 268 268 268 268 268 268 268 268 268 267 267 267
282 282 282 281 281 281 281 281 281 281 280 280 280 280 279 279 278 278 278 278 278 278 278 278 277 277 277 276 276 276 276 275 275 275 275 274 274 274 274 274 274 275 277 280 281 282 282 282 281 280 278 275 272 270 270 269 269 269 269 269 269 269 269 269 268 268 268 268 268
282 281 281 281 281 281 281 280 281 280 280 280 280 279 279 278 278 278 278 278 277 277 278 277 277 276 276 276 276 275 275 275 275 275 274 274 274 274 274 274 274 275 277 281 282 283 283 282 282 281 279 277 273 271 270 270 270 269 270 270 270 269 269 269 269 269 268 268 268
281 281 281 281 281 280 280 280 280 280 279 279 279 279 278 278 278 278 278 277 277 277 277 277 276 276 276 276 275 275 275 275 275 275 274 274 274 274 274 274 274 275 278 282 283 283 283 283 282 281 280 278 273 271 270 270 270 270 270 270 270 270 269 269 269 269 269 269 268
280 280 280 280 280 280 280 280 279 279 279 278 279 278 278 278 278 278 278 278 277 277 276 276 276 275 275 275 275 275 275 275 275 274 274 274 274 274 273 273 273 275 278 282 283 283 283 283 283 282 281 279 274 271 270 270 270 270 271 271 270 270 270 270 270 269 269 269 269
279 280 280 280 280 280 279 279 279 279 278 278 278 278 278 278 278 277 277 277 277 276 276 276 276 275 275 275 275 275 275 274 274 274 274 274 274 273 273 273 273 275 278 282 283 283 284 284 283 282 281 279 274 271 270 270 270 270 270 270 270 270 270 270 270 270 270 270 269
279 279 280 280 279 279 279 278 278 278 278 278 278 278 278 278 278 277 277 277 277 277 276 276 276 276 275 275 275 275 274 274 274 274 274 274 274 273 273 272 273 275 279 283 283 284 284 284 283 283 281 279 274 271 270 270 270 270 270 270 270 270 270 270 270 270 270 270 270
279 279 279 279 279 279 278 278 278 278 278 278 278 278 278 278 277 277 277 277 277 277 276 276 276 276 275 275 275 275 274 274 274 274 273 273 273 273 272 272 272 275 280 283 283 284 284 284 284 283 281 278 273 271 270 270 270 270 270 270 270 270 270 271 271 271 270 270 270
278 279 279 279 279 279 279 278 278 278 278 278 278 278 278 278 277 277 277 277 277 276 276 276 276 275 275 275 275 275 274 274 273 273 273 273 273 272 272 272 272 275 279 283 283 284 284 284 284 283 281 277 272 271 270 270 270 270 270 270 270 270 270 271 271 271 271 270 270
278 279 279 279 279 279 278 278 278 278 278 278 278 278 277 277 277 277 277 277 276 275 275 275 275 275 275 274 274 274 274 274 273 273 273 273 273 272 272 271 271 274 278 282 283 284 284 284 284 283 281 275 272 271 271 271 271 271 270 270 270 271 271 271 271 271 270 270 270
277 278 279 279 279 278 278 278 278 278 278 278 278 277 277 277 277 276 276 276 276 275 275 275 275 275 274 274 274 274 274 274 273 273 272 273 272 272 271 271 271 273 277 281 283 284 284 284 284 283 280 274 272 271 271 271 271 271 271 271 271 271 271 271 271 271 270 270 271
277 277 278 278 278 278 278 277 277 278 278 278 277 277 277 277 277 276 276 276 276 275 275 275 274 274 275 274 274 274 274 273 273 273 272 272 272 272 271 271 271 272 276 280 283 284 284 284 284 283 280 274 272 272 272 272 271 271 271 271 271 271 271 271 271 270 270 270 272
275 276 277 277 277 277 277 277 278 278 278 278 277 277 277 276 277 277 277 276 276 276 275 275 275 275 274 274 274 273 273 272 272 272 272 272 272 272 272 271 271 272 275 280 282 284 284 284 284 283 280 274 273 273 273 272 272 271 271 271 271 270 270 270 270 270 270 270 272
275 276 277 278 278 278 278 278 278 278 278 278 277 277 277 277 276 276 276 275 275 275 275 275 275 274 274 274 273 273 272 271 271 272 272 272 272 271 271 271 271 271 273 278 282 284 284 284 284 283 281 275 274 273 273 273 272 271 271 271 270 270 270 269 269 270 270 270 271
Wind_Speed
11 11 10 10 10 9 9 8 8 8 8 8 9 9 9 9 10 9 9 9 9 9 8 8 8 7 8 10 12 13 13 13 13 13 13 12 12 11 10 10 10 10 9 9 9 8 8 8 7 6 5 5 5 5 5 4 5 5 5 5 5 5 6 7 6 6 7 7 5
12 12 11 10 10 9 8 8 8 8 8 8 9 9 9 9 10 9 9 10 9 8 8 7 8 9 10 12 13 14 14 14 14 14 13 13 13 12 11 10 10 10 10 10 10 9 8 8 8 7 6 5 5 5 5 4 5 6 6 7 5 5 5 6 6 6 6 6 5
13 12 11 11 11 10 10 9 10 10 10 9 8 9 9 9 9 9 9 9 9 8 7 7 8 10 12 13 13 13 14 14 14 14 13 13 13 12 12 11 11 11 11 10 10 9 8 9 8 7 6 6 6 6 6 5 5 6 6 7 5 5 4 5 5 5 5 5 5
14 13 13 13 14 14 13 11 11 12 11 9 8 8 8 9 8 8 8 8 8 8 8 8 8 10 12 13 14 14 14 14 14 14 13 13 13 13 13 12 12 11 11 11 10 10 9 9 8 7 7 7 8 7 6 5 5 5 5 5 5 5 5 4 4 4 4 4 5
15 14 14 14 15 15 14 12 12 12 10 9 8 8 8 8 7 7 7 8 9 9 9 9 9 9 11 13 14 15 15 14 15 14 13 13 13 13 13 12 12 12 11 11 11 10 10 10 7 6 6 7 7 7 6 6 7 6 5 4 4 4 4 4 4 4 4 4 4
15 15 15 14 15 14 13 11 12 11 10 9 10 10 10 9 9 9 9 10 10 10 10 11 10 10 11 13 14 15 15 14 14 13 13 13 12 12 13 13 13 12 11 11 11 11 10 10 7 6 5 6 5 5 6 8 7 6 5 4 4 4 4 5 4 4 4 4 4
15 15 15 15 15 14 13 12 11 10 10 10 12 13 14 12 12 12 12 10 9 9 10 10 11 11 12 13 14 15 14 14 13 14 14 13 12 13 13 13 13 12 12 11 11 11 10 10 7 6 6 6 5 6 7 8 7 7 7 6 4 4 4 5 4 4 5 6 6
14 15 15 15 15 14 14 13 11 10 10 10 13 15 16 14 14 13 12 10 9 9 10 10 11 13 14 14 14 15 15 15 14 14 14 13 13 13 13 13 13 12 12 12 11 11 10 9 7 6 6 6 6 6 7 9 9 8 8 7 5 4 4 4 4 5 5 7 7
14 15 15 15 15 14 14 13 12 12 12 13 14 15 15 14 14 13 12 11 10 10 10 10 12 13 14 15 15 15 15 15 15 15 14 13 14 14 13 13 13 13 12 11 12 12 11 9 7 7 7 7 7 7 8 10 10 10 9 7 6 5 4 4 5 5 6 7 8
15 15 15 15 15 15 14 13 13 13 14 14 14 14 14 14 13 13 12 10 9 10 10 11 12 13 14 15 15 15 15 14 14 15 14 14 14 14 14 13 14 13 13 12 12 12 12 10 8 7 7 7 8 9 10 10 11 10 9 6 6 6 6 4 5 6 6 6 7
16 15 15 14 15 14 13 13 13 13 13 14 14 14 13 14 14 13 11 9 9 11 12 12 13 14 14 14 14 14 14 13 13 14 14 14 15 15 15 14 15 15 14 13 12 11 11 10 9 9 9 8 9 9 10 11 11 11 9 7 7 8 8 6 6 6 6 7 7
16 14 14 13 13 13 13 13 13 13 13 14 14 13 13 13 14 13 11 10 12 13 13 12 13 14 14 13 13 13 13 13 14 14 14 15 15 15 15 15 15 15 15 14 13 12 11 11 11 11 11 10 9 9 10 12 12 11 10 9 9 9 9 8 8 7 6 7 7
15 13 12 12 12 13 13 14 13 13 13 14 13 13 13 12 13 12 12 13 13 12 11 11 13 13 13 13 13 13 13 13 14 14 14 14 14 15 15 15 15 15 15 14 13 12 12 12 13 13 13 12 10 10 11 13 13 12 12 11 11 10 10 10 9 8 7 7 7
14 13 13 12 13 13 14 14 13 13 13 14 14 13 12 11 11 12 13 13 13 12 11 11 11 12 12 13 13 13 13 13 14 14 14 14 14 15 15 14 15 15 14 13 13 13 13 13 14 14 14 14 12 12 12 13 13 13 13 13 13 12 11 10 10 9 9 9 8
13 13 13 13 13 13 14 15 13 13 14 15 14 13 11 10 11 11 12 13 12 11 11 11 11 11 12 13 13 14 14 14 14 15 15 15 15 15 15 14 15 14 14 13 13 13 14 14 14 14 14 14 14 13 13 13 13 13 13 13 13 13 12 11 10 10 10 11 10
14 14 14 13 14 14 14 15 13 13 14 15 14 13 11 10 10 11 12 13 12 11 11 12 12 11 11 12 13 14 14 14 15 15 15 15 15 15 15 15 15 15 14 14 14 13 13 13 13 13 14 14 14 13 13 13 13 12 12 12 12 12 12 11 11 11 11 11 10
14 14 14 14 15 16 16 16 14 13 14 15 15 14 12 11 10 11 12 13 12 11 12 13 12 12 12 12 13 13 14 14 15 15 15 16 16 16 15 15 15 15 15 15 15 14 13 12 12 12 13 13 13 13 13 13 12 12 12 11 11 11 11 11 11 11 10 10 11
14 15 15 15 16 17 18 18 16 15 15 15 15 14 13 12 11 11 12 13 13 13 14 14 13 13 13 14 13 13 13 14 15 15 15 16 16 16 16 16 16 16 16 16 16 16 15 14 13 12 12 12 12 12 12 12 11 11 11 10 10 10 10 10 10 9 10 10 10
15 15 16 17 18 19 19 19 18 17 16 15 14 14 13 13 13 13 12 13 14 15 15 15 14 13 14 15 15 14 14 14 16 16 16 16 16 17 17 17 16 16 16 16 17 16 16 15 14 13 12 12 11 11 11 11 10 10 10 9 9 9 9 9 8 8 8 9 9
16 17 18 19 19 19 19 19 18 17 15 13 13 14 14 14 14 15 15 15 15 15 16 16 15 15 15 16 16 16 15 14 16 17 17 17 17 18 18 18 17 17 17 16 16 16 15 14 14 13 13 12 12 11 11 10 10 9 9 8 8 8 8 8 8 7 7 8 8
18 19 19 20 19 19 19 18 17 15 14 12 14 15 15 15 15 16 17 16 16 15 16 16 17 17 17 17 18 17 16 14 16 17 17 17 18 18 18 18 17 16 16 15 15 15 15 14 14 13 13 13 12 12 11 11 10 10 9 8 8 8 8 7 7 7 7 8 8
20 20 19 19 18 18 17 15 14 13 13 13 14 15 15 15 15 16 16 15 15 15 16 17 17 18 18 18 18 18 16 13 15 15 16 16 17 17 16 16 16 15 15 15 15 15 15 14 14 13 13 12 12 12 12 11 11 10 10 9 8 8 7 7 7 7 7 8 8
20 18 17 16 16 15 14 13 13 13 13 13 13 14 14 14 14 14 14 13 14 15 16 16 16 16 17 17 17 17 15 13 14 14 14 14 14 14 14 14 15 15 15 15 14 14 14 13 13 13 13 12 12 12 12 12 11 11 10 10 9 8 8 7 7 7 7 7 7
18 16 14 12 13 13 13 13 13 13 14 14 14 14 14 14 13 13 13 14 14 15 15 13 13 14 15 14 15 15 15 14 14 14 13 13 13 13 13 13 14 14 14 13 14 15 15 13 13 12 12 12 12 12 12 12 11 11 11 11 10 9 8 7 7 7 7 7 7
15 14 12 11 12 12 13 13 14 14 14 14 13 13 13 13 13 13 14 14 14 15 14 13 12 12 12 12 13 14 14 15 15 15 14 13 13 12 12 12 12 12 12 12 17 20 19 16 14 13 12 11 11 11 11 11 11 11 11 12 11 10 9 8 7 7 7 7 7
12 12 12 12 12 12 13 14 14 14 14 12 12 12 12 13 13 13 14 14 14 14 14 13 12 12 12 12 12 13 13 13 14 15 15 14 14 13 12 12 11 11 11 13 21 24 24 21 19 16 13 11 11 11 10 10 11 11 11 12 11 11 10 9 9 8 8 7 7
10 11 12 11 12 13 14 14 14 13 13 12 13 13 13 13 12 13 14 14 14 13 13 12 12 12 12 11 13 13 13 12 13 14 15 15 15 15 14 12 11 10 11 17 23 26 26 25 23 20 16 12 12 11 11 10 11 11 11 11 11 11 11 11 11 10 9 8 7
10 11 11 11 12 13 14 13 13 13 14 14 14 14 13 13 13 13 14 14 13 13 12 11 11 10 10 10 12 14 14 13 12 13 13 14 15 16 15 13 12 12 14 21 25 27 27 26 25 23 20 14 12 11 11 11 11 10 10 10 10 11 11 11 10 10 10 9 8
10 10 10 11 12 13 13 13 14 14 14 14 14 13 13 13 14 14 14 14 14 14 12 10 9 8 9 11 12 13 14 13 12 12 13 14 14 15 15 14 13 14 18 25 27 28 28 27 27 26 23 19 13 10 9 10 10 10 10 9 9 10 11 10 9 9 10 10 9
10 10 10 12 12 12 12 13 14 14 13 12 12 13 13 14 14 15 15 15 16 15 13 10 10 10 11 13 13 13 13 13 12 13 13 15 15 15 14 14 13 15 19 27 28 29 28 28 27 27 25 23 15 11 9 10 10 10 10 9 10 11 11 11 11 11 10 9 10
9 9 10 11 12 12 12 13 12 11 11 11 12 13 14 15 15 16 16 16 14 13 12 12 13 14 14 13 13 14 14 13 13 13 14 16 16 16 15 14 13 15 20 28 29 29 29 28 28 27 27 25 17 12 10 10 10 10 10 10 11 12 12 11 11 11 11 11 10
9 10 11 11 12 12 11 10 10 10 11 12 13 14 15 15 15 14 14 13 12 12 12 14 15 15 15 14 14 14 15 14 14 14 15 15 16 15 15 14 14 15 20 28 29 29 29 29 28 28 27 26 18 13 11 11 11 10 10 11 12 12 12 11 11 12 12 12 11
8 9 10 11 11 10 9 9 9 10 11 12 13 14 14 14 13 12 12 11 12 14 15 16 16 16 16 15 15 15 15 15 15 15 15 15 15 15 14 13 12 15 21 28 29 30 30 29 29 29 28 26 18 13 11 11 10 9 9 10 11 12 12 12 11 11 12 12 11
7 8 9 9 9 8 8 8 9 10 11 12 13 13 14 13 13 12 12 11 12 12 14 15 15 15 15 15 15 15 15 14 14 14 14 14 14 14 14 12 10 15 22 28 29 30 30 30 29 29 28 25 17 13 11 11 10 9 9 10 11 12 12 11 11 11 11 11 10
7 8 8 8 8 8 8 9 9 10 11 12 13 13 13 13 14 14 13 12 11 11 11 11 12 12 12 12 13 14 15 14 14 14 14 14 14 15 14 13 11 16 23 28 29 30 30 30 29 29 27 22 15 12 11 12 11 11 11 11 12 12 12 11 11 11 11 11 10
7 8 8 8 8 8 9 10 10 11 12 13 13 13 13 13 12 12 12 11 10 10 11 11 11 11 11 11 11 12 14 15 14 14 14 14 15 15 15 14 12 17 24 28 29 29 30 30 30 29 26 19 13 11 11 11 11 11 12 12 12 13 13 12 11 10 10 10 10
7 8 9 9 9 9 10 10 11 12 13 14 14 13 13 12 11 10 10 11 11 11 12 11 12 13 13 14 12 12 13 14 15 15 15 15 16 16 15 14 13 17 23 28 29 29 29 30 30 28 24 16 12 11 11 10 10 10 11 12 12 13 13 11 10 10 11 11 11
7 8 9 9 10 10 10 11 12 13 14 14 13 12 12 11 10 10 10 12 12 13 13 13 14 14 14 14 14 14 14 13 15 15 16 16 16 16 16 15 14 16 21 26 28 29 30 30 30 28 24 15 13 12 12 10 10 10 11 11 11 11 11 9 9 9 10 12 13
7 8 8 9 10 10 11 12 13 14 14 13 12 11 10 10 10 10 11 11 12 13 14 14 15 14 14 14 13 13 13 13 14 15 16 16 16 16 16 16 15 16 19 25 28 30 30 30 31 29 25 16 14 13 12 11 11 11 11 10 10 10 10 9 8 8 9 12 15
7 7 8 9 9 10 11 12 13 13 12 12 11 11 11 11 10 10 11 10 11 12 13 13 14 14 13 13 13 13 12 12 13 14 15 15 15 16 17 16 16 16 19 24 28 30 31 31 31 30 26 16 14 12 11 11 11 12 12 11 10 10 10 9 8 8 9 10 14
6 7 8 9 9 10 11 12 12 11 10 10 11 11 10 10 9 9 10 9 10 11 11 11 12 13 13 13 12 12 12 13 13 13 14 14 14 15 16 15 15 16 18 22 27 30 31 32 32 31 27 17 14 12 11 11 12 13 13 12 11 10 10 9 8 8 8 9 10
Wind_Direction
196 195 194 192 191 192 194 196 193 190 187 186 187 187 187 187 190 191 192 193 195 195 194 191 188 183 177 174 177 179 181 182 180 180 180 181 183 183 182 181 180 180 180 179 178 180 180 178 172 169 170 172 172 171 169 164 159 158 159 157 155 154 156 158 161 161 159 156 153
199 198 196 194 193 193 194 195 194 193 191 190 188 187 187 188 190 191 192 194 195 193 190 187 181 177 175 176 178 180 183 184 183 182 181 182 182 181 180 181 182 182 181 179 179 180 182 180 175 173 171 172 170 171 171 167 159 157 157 158 156 155 155 159 165 166 163 157 153
200 199 199 198 197 196 195 196 196 195 193 192 189 187 187 190 191 192 193 194 192 189 185 184 178 175 174 175 179 182 184 186 185 185 184 184 183 182 182 182 183 183 182 181 182 183 183 181 179 176 174 174 174 175 174 169 162 159 159 161 158 156 157 163 168 168 166 161 156
201 201 201 202 201 199 198 197 196 195 193 191 188 187 189 192 193 193 192 189 188 188 187 183 176 173 174 175 179 183 185 186 185 186 186 186 183 182 182 182 182 183 184 183 185 185 184 182 183 180 176 174 176 177 175 168 165 163 162 162 158 157 160 163 167 169 169 167 163
202 203 204 205 204 203 202 200 197 195 193 189 187 189 192 193 193 191 188 187 190 191 188 179 173 172 174 175 179 182 184 185 185 186 187 186 184 182 182 181 183 184 185 184 185 184 183 182 185 183 178 174 178 177 171 160 162 162 160 158 159 160 161 160 166 169 171 170 170
203 205 206 207 207 207 207 205 200 196 192 189 189 192 194 194 192 191 190 192 192 188 182 176 172 171 173 176 179 181 183 184 186 186 187 186 183 182 181 183 184 184 184 184 185 183 181 182 184 182 177 173 174 168 159 155 159 160 159 160 166 163 160 160 165 167 167 166 166
203 203 205 207 207 208 209 208 202 197 193 191 194 196 196 194 193 192 192 190 185 181 178 177 175 173 173 177 179 181 183 184 186 186 186 185 183 182 182 183 183 183 183 183 183 182 182 184 184 181 176 173 169 162 159 160 163 163 163 168 171 165 161 163 163 163 164 164 162
203 203 204 206 206 207 208 207 203 198 197 198 200 200 198 194 192 190 188 183 182 181 180 180 178 176 175 177 179 182 183 183 185 186 186 184 183 182 182 182 181 183 183 182 182 182 184 187 185 180 175 174 170 167 165 166 166 166 167 170 169 165 161 161 161 162 164 163 160
204 204 204 204 204 205 206 205 203 201 202 204 204 203 199 195 191 188 186 185 184 182 180 181 179 177 175 178 180 181 182 182 184 185 186 185 183 182 182 181 182 183 184 182 182 182 184 188 187 183 179 178 173 169 168 168 167 167 168 167 165 163 160 158 161 163 162 160 157
205 203 201 201 203 203 203 203 204 204 206 207 206 204 200 196 193 190 189 187 182 180 181 183 179 177 177 180 181 182 183 182 183 184 184 184 183 183 182 182 183 183 183 183 183 183 184 188 187 185 183 181 172 168 167 169 168 168 168 167 162 161 161 164 164 164 162 160 156
205 202 200 200 200 199 198 200 204 207 208 210 207 204 201 199 196 194 191 184 180 183 185 183 178 177 179 182 183 183 183 182 182 183 183 185 184 184 184 183 183 183 183 182 182 183 185 190 186 184 182 180 170 166 167 171 169 168 167 166 161 161 163 169 169 166 162 158 152
207 203 200 199 197 195 195 199 204 207 209 211 208 204 202 201 197 193 188 182 184 187 187 181 178 179 180 182 183 183 182 181 181 182 183 185 185 185 185 184 184 183 183 182 182 183 186 191 186 182 180 179 173 169 170 172 171 169 167 165 164 165 167 171 171 168 162 155 149
206 203 200 198 194 193 195 200 204 206 208 210 208 205 203 202 196 190 186 186 188 188 185 180 180 180 181 182 182 182 182 182 181 181 182 184 184 184 185 185 185 184 184 183 183 185 187 190 185 182 180 179 177 175 174 174 173 171 170 169 170 171 172 172 171 166 158 153 150
205 202 200 196 193 193 196 201 204 206 207 209 208 206 202 200 195 190 188 190 189 185 181 179 181 182 182 181 181 181 181 181 180 181 182 183 183 184 185 186 185 185 184 184 185 187 188 190 186 183 180 180 179 177 175 177 176 175 173 173 175 175 174 172 168 163 158 157 155
205 203 200 195 193 194 198 201 204 205 206 208 207 204 201 198 194 190 189 190 188 183 178 178 182 184 183 181 180 180 180 180 180 181 182 183 183 184 185 186 186 185 185 185 186 188 190 189 186 184 182 181 180 177 176 179 179 178 177 177 178 176 174 171 168 165 163 161 158
205 203 200 195 195 197 200 202 204 205 206 207 205 202 199 197 193 190 189 189 186 182 179 180 181 181 181 180 180 179 179 180 181 182 182 183 184 185 186 186 186 186 185 185 186 189 191 190 187 185 183 183 180 178 178 180 180 180 180 180 178 176 173 171 170 169 167 164 162
205 203 200 197 198 200 202 203 204 204 205 206 202 199 197 194 191 190 190 188 184 182 182 182 180 178 178 180 180 179 180 181 183 183 184 184 183 184 185 186 186 186 185 184 185 188 190 190 188 186 184 183 181 179 179 180 179 179 179 178 177 175 173 173 172 170 168 165 164
206 204 202 200 202 203 204 204 204 204 204 203 200 197 195 192 189 189 190 188 184 183 182 182 179 177 177 179 180 181 181 183 184 185 185 183 182 183 184 186 185 185 184 185 186 187 187 187 186 185 184 183 181 180 178 178 177 176 175 174 173 173 172 174 173 170 168 166 165
207 205 203 203 205 205 205 205 205 204 203 200 196 194 193 190 187 187 188 189 187 184 181 179 178 178 178 178 180 182 183 184 185 185 184 183 183 183 185 185 184 184 184 185 186 186 186 184 183 182 181 181 179 178 176 176 174 171 169 168 168 169 170 172 171 170 167 165 162
208 206 205 206 206 206 206 206 205 204 201 197 194 192 192 190 187 186 188 190 188 184 180 178 178 179 180 179 180 182 184 184 184 184 184 184 184 185 186 184 183 183 183 185 185 185 184 183 181 180 179 177 175 174 172 171 168 165 163 163 163 165 166 167 167 166 164 161 160
210 209 208 208 207 207 207 206 205 202 199 195 194 192 192 189 188 188 189 188 185 182 181 180 180 180 180 180 181 183 184 184 184 185 185 185 186 187 185 183 181 181 182 183 183 182 181 180 179 178 176 175 173 171 169 166 163 160 158 157 158 160 161 161 162 162 162 161 162
213 211 210 209 208 207 207 206 203 201 199 197 196 194 192 190 190 190 189 184 182 182 183 183 182 182 181 181 182 183 183 183 185 186 186 186 187 186 184 180 178 178 179 181 181 179 178 177 176 175 174 173 172 170 167 164 161 157 155 153 153 154 157 159 161 163 163 164 165
214 212 210 209 208 206 205 203 201 200 199 199 197 195 193 191 190 188 185 181 182 184 186 185 184 183 183 182 181 181 180 181 184 186 186 186 185 183 180 178 177 178 179 180 178 176 174 173 173 173 172 170 169 168 166 164 160 157 155 153 152 154 157 161 163 164 165 167 168
214 212 209 207 205 203 201 198 197 198 199 199 197 194 192 189 186 183 181 182 184 185 186 186 185 184 183 181 180 179 179 180 182 183 185 184 182 179 177 176 177 179 180 180 178 176 173 171 171 171 171 169 168 166 165 164 161 158 156 155 155 156 159 163 165 167 169 171 172
213 209 205 202 200 198 196 194 195 197 198 197 194 191 189 185 182 180 181 183 184 184 184 183 182 181 179 179 180 180 180 180 179 179 180 181 178 176 175 176 179 180 181 180 180 179 176 173 171 170 168 167 165 163 162 162 161 160 159 159 158 159 160 164 169 172 174 176 176
210 205 202 199 195 193 192 193 194 195 194 192 189 188 186 183 180 179 180 182 182 182 181 179 177 176 176 177 179 180 181 182 180 178 176 176 175 175 176 178 180 180 181 182 182 180 178 176 173 169 165 163 161 160 160 162 162 161 161 161 161 161 163 167 173 177 180 181 181
207 203 201 196 192 192 193 193 191 190 189 186 186 186 185 180 178 178 179 180 180 178 177 176 175 174 173 174 176 179 181 182 180 178 176 174 174 175 177 180 180 180 182 183 183 181 179 177 174 170 166 161 161 161 162 162 161 162 162 164 164 165 167 170 174 177 179 182 183
207 204 200 193 192 194 194 190 188 187 187 186 186 184 181 176 176 178 179 179 176 175 175 177 174 172 170 173 178 180 180 179 178 177 177 176 176 176 178 180 180 181 182 184 183 182 180 178 175 171 167 161 160 160 160 159 161 163 166 167 168 170 172 173 174 175 177 180 182
208 203 197 193 196 196 193 188 189 188 187 184 182 179 176 175 177 179 179 177 175 176 177 177 171 169 171 177 180 180 178 177 176 176 176 177 178 180 181 181 180 181 183 184 184 183 181 180 176 172 168 164 160 159 160 160 163 166 170 172 173 174 175 175 174 175 177 178 180
207 201 197 197 198 197 194 192 191 188 183 179 177 175 175 177 180 180 180 178 179 179 177 171 168 171 176 179 177 177 178 179 177 175 176 177 180 182 183 182 180 181 183 185 185 184 182 180 177 173 169 166 161 159 161 163 166 169 173 175 176 176 175 174 174 175 177 177 178
202 199 198 199 200 199 197 195 190 184 178 175 176 176 178 181 183 184 183 181 181 178 173 167 170 175 178 176 175 176 178 178 178 178 179 180 181 182 182 181 179 181 184 186 185 184 183 181 178 174 170 167 163 161 163 165 168 172 175 177 176 176 175 173 174 175 176 176 177
198 198 199 200 202 201 197 191 185 179 176 176 178 180 182 185 186 185 183 180 177 173 171 171 175 177 177 175 176 178 179 178 179 181 181 181 180 180 179 179 178 182 185 186 186 185 184 182 179 176 172 168 164 163 164 165 169 172 174 175 174 174 174 173 174 176 176 176 177
198 198 200 202 202 199 193 185 181 178 178 179 182 184 186 187 186 184 181 179 176 175 175 177 178 178 177 177 178 179 179 180 181 181 181 180 178 177 176 177 178 183 187 187 186 185 184 183 180 177 173 169 164 162 163 163 166 170 172 173 173 173 173 173 174 175 176 177 177
199 200 201 203 200 195 188 182 180 179 180 183 186 188 187 186 184 182 182 181 179 179 180 180 180 179 178 177 177 178 179 180 180 179 179 178 176 175 175 178 179 186 188 188 187 186 185 183 181 178 173 167 162 160 162 163 165 168 170 170 171 173 174 174 174 174 174 176 176
198 199 201 202 196 190 184 181 180 181 183 187 190 190 189 187 185 184 182 180 179 179 181 182 181 179 178 178 177 177 177 177 178 177 177 176 174 175 177 179 180 187 189 189 188 187 186 184 181 178 173 165 159 159 162 164 166 168 169 169 170 172 174 175 174 174 174 174 175
197 197 198 198 193 188 184 182 182 184 187 191 192 192 190 189 187 183 179 174 173 176 178 180 179 178 179 179 181 180 179 177 176 176 176 175 175 176 178 178 180 187 191 191 189 188 186 184 181 177 172 163 159 160 164 167 168 169 169 169 171 173 174 174 174 174 174 175 176
198 196 196 195 192 189 186 184 184 188 192 194 193 191 189 187 185 180 175 170 172 175 177 177 178 180 181 181 183 183 181 178 175 175 175 177 177 177 177 177 180 187 192 192 191 189 187 185 182 177 171 160 159 162 166 168 169 168 169 170 172 173 173 173 173 173 174 176 178
200 198 197 195 193 191 188 186 189 192 195 196 194 191 187 183 181 178 176 173 175 176 177 178 181 183 183 181 181 182 181 178 176 175 176 178 179 178 176 175 179 187 193 193 192 190 188 185 183 178 171 159 161 164 167 169 169 169 169 171 171 172 172 171 172 174 176 179 180
201 199 198 197 195 192 190 191 194 195 196 194 191 188 185 183 182 181 179 178 178 178 178 180 183 183 181 178 178 179 179 179 178 177 178 180 180 178 176 175 179 186 193 194 193 191 189 187 184 178 171 160 164 166 168 168 168 168 169 169 168 169 170 172 173 175 178 182 183
202 200 199 199 197 195 194 196 198 197 195 191 189 187 186 185 183 181 179 180 182 181 181 183 183 181 177 175 176 177 177 178 180 180 180 180 179 177 176 176 178 185 192 195 193 191 189 188 185 179 173 163 167 169 168 167 167 168 168 168 167 168 170 173 174 175 178 183 185
204 202 202 203 201 199 198 199 200 198 194 191 189 188 185 182 180 177 177 180 183 184 184 184 181 178 175 175 176 176 176 178 180 181 180 178 177 177 178 178 178 184 191 196 194 192 190 189 187 181 175 166 170 170 168 167 167 169 170 170 169 168 169 171 173 176 178 183 185